Location: La Comballaz
(46.3780°N, 7.0817°E)
Time: 07:43:17
(UTC+00:00)

Cosmos 2322 Rocket - Pass Details

Date: 09 April 2020
Orbit: 834 x 849 km, 71.0° (Epoch: 23 May)

Event Time Altitude Azimuth Distance (km) Brightness Sun altitude
Rises 23:19:44 0° 330° (NNW) 3,403 6.2 -35.5°
Reaches altitude 10° 23:22:13 10° 327° (NNW) 2,462 5.2 -35.5°
Enters shadow 23:25:03 30° 317° (NW) 1,471 3.7 -35.6°
